GEFSNE_prec_meanprecacc_234.txt.gz
Total_Precipitation_Accumulation
1.84 1.85 1.86 1.76 1.76 1.76 1.86 1.94 1.98 1.78 1.53 1.27 1.11 1.00 1.06 1.07 1.28 1.19 1.02 1.06 0.98 0.89 0.81 0.76 0.86 1.02 1.25 1.37 1.50 1.66 1.83 1.93 2.00 1.91 1.83 1.80 1.80 1.92
1.60 1.65 1.71 1.68 1.74 1.75 1.80 1.87 1.86 1.80 1.65 1.38 1.19 1.11 1.15 1.04 1.16 1.04 1.10 1.27 1.07 0.92 0.85 0.80 0.82 0.90 0.98 1.02 1.03 1.00 1.04 1.11 1.18 1.31 1.36 1.40 1.45 1.57
1.26 1.32 1.40 1.39 1.51 1.56 1.65 1.73 1.78 1.73 1.51 1.32 1.19 1.20 1.22 1.20 1.17 1.08 1.13 1.18 1.07 0.97 0.84 0.75 0.78 0.84 0.90 0.94 0.93 0.87 0.82 0.78 0.84 0.96 1.07 1.14 1.14 1.14
1.07 1.12 1.12 1.13 1.25 1.34 1.40 1.50 1.63 1.66 1.56 1.38 1.27 1.20 1.10 1.11 1.26 1.31 1.29 1.21 1.21 1.26 1.13 0.97 0.90 0.87 0.84 0.89 0.95 0.90 0.84 0.75 0.71 0.78 0.87 0.97 1.05 1.06
0.76 0.81 0.86 0.92 1.09 1.16 1.19 1.29 1.44 1.49 1.58 1.46 1.38 1.31 1.15 1.08 1.25 1.27 1.33 1.50 1.41 1.48 1.60 1.39 1.14 0.98 0.87 0.90 0.96 0.94 0.86 0.79 0.68 0.70 0.82 0.90 0.90 0.93
0.66 0.67 0.67 0.71 0.82 0.94 1.03 1.21 1.38 1.50 1.55 1.49 1.47 1.43 1.35 1.24 1.31 1.41 1.47 1.57 1.60 1.43 1.45 1.42 1.36 1.25 1.05 0.94 0.99 1.03 1.00 0.93 0.86 0.80 0.82 0.86 0.84 0.83
0.62 0.64 0.64 0.63 0.65 0.69 0.68 0.87 1.09 1.32 1.42 1.47 1.49 1.52 1.47 1.42 1.36 1.49 1.56 1.68 1.78 1.75 1.61 1.44 1.40 1.25 1.13 1.05 1.01 1.05 1.09 1.07 1.02 0.93 0.88 0.89 0.86 0.85
0.66 0.67 0.64 0.60 0.64 0.63 0.61 0.62 0.74 0.91 1.10 1.21 1.29 1.35 1.41 1.51 1.62 1.63 1.59 1.65 1.71 1.73 1.60 1.60 1.54 1.42 1.25 1.08 1.08 1.09 1.12 1.14 1.11 1.04 0.95 0.87 0.85 0.87
0.66 0.76 0.79 0.71 0.70 0.72 0.73 0.66 0.60 0.62 0.78 0.99 1.12 1.17 1.25 1.33 1.57 1.61 1.62 1.65 1.57 1.61 1.46 1.50 1.45 1.32 1.24 1.20 1.21 1.13 1.14 1.11 1.11 1.06 1.03 0.96 0.89 0.91
0.59 0.70 0.94 0.95 0.83 0.77 0.81 0.89 0.81 0.66 0.66 0.72 0.90 1.04 1.09 1.23 1.55 1.77 1.72 1.51 1.47 1.53 1.43 1.43 1.37 1.24 1.17 1.15 1.20 1.11 1.09 1.06 1.02 1.03 1.00 0.97 0.92 0.93
0.50 0.62 0.78 0.91 0.84 0.78 0.76 0.83 0.87 0.77 0.72 0.74 0.71 0.79 0.93 1.10 1.36 1.61 1.73 1.68 1.52 1.47 1.35 1.27 1.28 1.26 1.28 1.23 1.18 1.16 1.08 1.07 1.07 1.06 1.08 1.06 1.02 1.07
0.37 0.54 0.71 0.68 0.62 0.67 0.77 0.86 0.95 0.80 0.70 0.80 0.79 0.82 0.85 1.04 1.37 1.57 1.70 1.69 1.57 1.52 1.40 1.31 1.31 1.31 1.48 1.43 1.25 1.19 1.13 1.15 1.16 1.14 1.13 1.16 1.21 1.18
0.32 0.46 0.51 0.48 0.46 0.54 0.64 0.75 0.89 0.76 0.76 0.91 0.95 0.93 1.00 1.05 1.17 1.32 1.53 1.65 1.58 1.42 1.34 1.44 1.50 1.42 1.39 1.40 1.36 1.27 1.18 1.10 1.09 1.12 1.13 1.14 1.19 1.16
0.34 0.38 0.38 0.36 0.38 0.42 0.45 0.55 0.66 0.74 0.82 0.96 1.03 1.01 0.97 1.03 1.09 1.13 1.23 1.35 1.35 1.30 1.21 1.17 1.27 1.26 1.20 1.09 1.08 1.14 1.16 1.12 1.08 1.08 1.10 1.21 1.20 1.20
0.33 0.36 0.37 0.38 0.41 0.41 0.41 0.47 0.60 0.79 0.97 0.98 0.91 0.88 0.92 0.97 0.98 1.09 1.17 1.21 1.23 1.22 1.11 0.96 0.97 1.04 1.04 0.98 0.90 0.92 1.02 1.07 1.03 0.99 1.00 1.05 1.07 1.11
0.37 0.39 0.39 0.41 0.41 0.39 0.45 0.56 0.70 0.90 1.00 0.92 0.87 0.75 0.76 0.88 0.94 0.95 0.99 1.01 1.06 1.11 1.02 0.96 0.93 0.93 0.95 0.91 0.87 0.83 0.84 0.90 0.94 0.96 0.96 0.94 0.94 0.97
0.35 0.41 0.45 0.49 0.52 0.57 0.66 0.74 0.76 0.80 0.86 0.78 0.82 0.75 0.69 0.75 0.79 0.80 0.82 0.79 0.79 0.80 0.82 0.85 0.87 0.86 0.84 0.86 0.88 0.83 0.83 0.80 0.79 0.89 0.96 0.94 0.89 0.89
0.40 0.45 0.52 0.59 0.63 0.70 0.76 0.76 0.74 0.75 0.78 0.75 0.74 0.72 0.66 0.66 0.67 0.69 0.73 0.76 0.79 0.76 0.69 0.66 0.68 0.74 0.78 0.84 0.83 0.78 0.80 0.82 0.83 0.85 0.86 0.85 0.79 0.78
0.37 0.46 0.64 0.69 0.66 0.70 0.74 0.72 0.64 0.58 0.59 0.61 0.59 0.56 0.54 0.55 0.59 0.60 0.63 0.69 0.71 0.67 0.66 0.68 0.68 0.72 0.73 0.67 0.63 0.61 0.71 0.75 0.77 0.81 0.83 0.81 0.76 0.73
0.30 0.37 0.51 0.54 0.57 0.63 0.62 0.59 0.53 0.47 0.46 0.45 0.44 0.44 0.46 0.49 0.50 0.54 0.55 0.56 0.61 0.61 0.59 0.60 0.62 0.65 0.70 0.71 0.65 0.55 0.56 0.64 0.67 0.71 0.73 0.77 0.80 0.90
0.30 0.36 0.41 0.45 0.46 0.46 0.46 0.45 0.44 0.44 0.44 0.44 0.43 0.44 0.45 0.47 0.46 0.45 0.49 0.54 0.54 0.53 0.55 0.55 0.56 0.67 0.71 0.77 0.73 0.57 0.50 0.58 0.64 0.63 0.69 0.78 0.78 0.73
0.30 0.31 0.34 0.35 0.36 0.37 0.38 0.40 0.41 0.43 0.44 0.44 0.43 0.44 0.47 0.49 0.48 0.47 0.47 0.48 0.51 0.54 0.54 0.55 0.57 0.61 0.66 0.73 0.68 0.59 0.56 0.57 0.63 0.74 0.73 0.72 0.69 0.65
0.32 0.31 0.31 0.34 0.36 0.39 0.42 0.42 0.40 0.43 0.45 0.45 0.47 0.49 0.51 0.53 0.53 0.52 0.51 0.50 0.51 0.54 0.56 0.57 0.59 0.63 0.65 0.67 0.68 0.66 0.64 0.63 0.64 0.66 0.65 0.70 0.68 0.64

GEFSNE_prec_meanprecacc_240.txt.gz
Total_Precipitation_Accumulation
1.85 1.86 1.87 1.78 1.78 1.78 1.87 1.95 1.99 1.80 1.55 1.29 1.12 1.00 1.07 1.07 1.29 1.20 1.03 1.07 1.00 0.89 0.82 0.77 0.87 1.04 1.28 1.41 1.54 1.69 1.85 1.95 2.01 1.93 1.84 1.82 1.82 1.95
1.62 1.66 1.72 1.70 1.76 1.76 1.81 1.88 1.87 1.81 1.65 1.39 1.20 1.12 1.16 1.04 1.17 1.07 1.12 1.28 1.09 0.94 0.86 0.81 0.83 0.91 0.99 1.03 1.05 1.03 1.06 1.13 1.19 1.32 1.37 1.42 1.48 1.60
1.28 1.34 1.41 1.41 1.53 1.57 1.66 1.74 1.79 1.74 1.51 1.32 1.20 1.20 1.22 1.20 1.17 1.08 1.14 1.18 1.08 0.97 0.84 0.76 0.79 0.85 0.90 0.94 0.94 0.89 0.84 0.80 0.85 0.97 1.09 1.16 1.16 1.16
1.09 1.14 1.13 1.14 1.26 1.35 1.42 1.51 1.64 1.68 1.56 1.38 1.27 1.21 1.10 1.11 1.26 1.31 1.29 1.21 1.21 1.26 1.14 0.97 0.90 0.87 0.84 0.90 0.96 0.91 0.85 0.77 0.72 0.79 0.88 0.98 1.06 1.08
0.79 0.83 0.88 0.94 1.10 1.17 1.21 1.31 1.46 1.50 1.58 1.46 1.38 1.31 1.15 1.08 1.25 1.27 1.33 1.50 1.41 1.48 1.60 1.39 1.14 0.99 0.87 0.91 0.97 0.95 0.88 0.81 0.70 0.71 0.83 0.91 0.92 0.96
0.70 0.70 0.70 0.73 0.83 0.96 1.05 1.23 1.39 1.51 1.56 1.49 1.47 1.43 1.35 1.24 1.31 1.41 1.47 1.57 1.60 1.43 1.45 1.42 1.37 1.25 1.05 0.94 0.99 1.03 1.01 0.93 0.87 0.81 0.83 0.86 0.85 0.85
0.66 0.68 0.68 0.66 0.67 0.71 0.70 0.89 1.10 1.33 1.43 1.48 1.49 1.52 1.47 1.42 1.36 1.49 1.56 1.68 1.78 1.75 1.62 1.44 1.41 1.26 1.13 1.05 1.02 1.05 1.10 1.07 1.02 0.93 0.88 0.89 0.87 0.86
0.71 0.72 0.69 0.65 0.68 0.66 0.64 0.65 0.77 0.92 1.11 1.22 1.30 1.35 1.42 1.52 1.63 1.63 1.60 1.66 1.72 1.73 1.60 1.61 1.55 1.44 1.27 1.09 1.09 1.10 1.12 1.14 1.11 1.04 0.95 0.87 0.85 0.88
0.71 0.81 0.85 0.76 0.76 0.77 0.78 0.70 0.64 0.65 0.80 1.02 1.14 1.19 1.26 1.34 1.58 1.62 1.62 1.66 1.58 1.61 1.46 1.51 1.47 1.34 1.25 1.21 1.21 1.14 1.14 1.11 1.11 1.07 1.03 0.96 0.89 0.91
0.62 0.74 0.98 1.00 0.88 0.83 0.85 0.92 0.83 0.68 0.68 0.74 0.92 1.06 1.10 1.25 1.57 1.79 1.74 1.53 1.48 1.54 1.44 1.44 1.38 1.25 1.17 1.15 1.21 1.12 1.10 1.06 1.03 1.03 1.00 0.97 0.92 0.93
0.53 0.65 0.80 0.93 0.87 0.83 0.81 0.87 0.91 0.80 0.74 0.76 0.73 0.81 0.94 1.12 1.37 1.62 1.74 1.69 1.53 1.48 1.36 1.29 1.29 1.27 1.28 1.24 1.19 1.17 1.09 1.08 1.07 1.06 1.08 1.06 1.02 1.08
0.40 0.56 0.74 0.72 0.66 0.71 0.79 0.89 0.99 0.83 0.74 0.82 0.81 0.83 0.86 1.04 1.38 1.58 1.71 1.71 1.58 1.53 1.42 1.33 1.32 1.32 1.49 1.44 1.26 1.20 1.14 1.16 1.17 1.15 1.13 1.16 1.21 1.18
0.35 0.50 0.55 0.51 0.50 0.58 0.67 0.77 0.92 0.79 0.80 0.94 0.97 0.95 1.02 1.06 1.18 1.32 1.54 1.66 1.59 1.43 1.35 1.45 1.51 1.43 1.41 1.41 1.37 1.27 1.19 1.11 1.10 1.12 1.14 1.15 1.20 1.17
0.38 0.43 0.43 0.40 0.42 0.46 0.48 0.58 0.70 0.78 0.86 0.99 1.06 1.03 0.99 1.04 1.10 1.13 1.24 1.35 1.35 1.30 1.21 1.18 1.28 1.27 1.21 1.10 1.09 1.16 1.17 1.13 1.09 1.09 1.11 1.22 1.20 1.21
0.36 0.41 0.42 0.44 0.45 0.44 0.44 0.51 0.65 0.82 0.99 1.00 0.93 0.90 0.93 0.98 0.99 1.10 1.18 1.21 1.23 1.23 1.13 0.98 0.98 1.05 1.05 0.99 0.90 0.92 1.03 1.08 1.04 1.00 1.01 1.05 1.07 1.11
0.40 0.43 0.44 0.47 0.47 0.43 0.49 0.60 0.74 0.92 1.01 0.94 0.89 0.77 0.77 0.89 0.94 0.96 1.00 1.02 1.07 1.11 1.03 0.97 0.94 0.94 0.95 0.92 0.87 0.84 0.84 0.90 0.95 0.97 0.97 0.95 0.94 0.97
0.39 0.45 0.49 0.55 0.59 0.63 0.71 0.78 0.79 0.82 0.87 0.80 0.84 0.77 0.70 0.76 0.80 0.81 0.83 0.79 0.80 0.80 0.83 0.85 0.88 0.86 0.84 0.86 0.88 0.83 0.83 0.80 0.80 0.90 0.97 0.96 0.90 0.90
0.44 0.48 0.56 0.65 0.71 0.78 0.82 0.80 0.78 0.78 0.80 0.77 0.76 0.74 0.67 0.67 0.68 0.69 0.73 0.77 0.80 0.76 0.69 0.67 0.69 0.75 0.79 0.85 0.84 0.78 0.80 0.83 0.84 0.86 0.87 0.86 0.80 0.78
0.41 0.50 0.69 0.74 0.73 0.77 0.81 0.79 0.68 0.62 0.62 0.63 0.62 0.59 0.57 0.57 0.60 0.62 0.64 0.70 0.72 0.68 0.67 0.68 0.69 0.73 0.75 0.68 0.63 0.62 0.71 0.76 0.78 0.81 0.83 0.81 0.76 0.73
0.33 0.41 0.55 0.60 0.64 0.70 0.69 0.66 0.58 0.51 0.51 0.49 0.47 0.48 0.50 0.52 0.52 0.55 0.56 0.57 0.62 0.62 0.60 0.61 0.63 0.67 0.72 0.73 0.66 0.56 0.57 0.65 0.68 0.72 0.74 0.78 0.80 0.91
0.35 0.41 0.46 0.51 0.54 0.54 0.53 0.52 0.50 0.50 0.50 0.49 0.48 0.48 0.49 0.50 0.49 0.47 0.51 0.55 0.56 0.54 0.56 0.56 0.57 0.69 0.73 0.78 0.75 0.59 0.51 0.60 0.66 0.65 0.71 0.80 0.80 0.74
0.34 0.35 0.38 0.41 0.43 0.45 0.47 0.47 0.47 0.49 0.50 0.49 0.48 0.49 0.52 0.53 0.51 0.49 0.48 0.50 0.52 0.55 0.55 0.56 0.58 0.62 0.68 0.74 0.69 0.60 0.57 0.58 0.65 0.76 0.76 0.75 0.72 0.67
0.35 0.34 0.34 0.38 0.42 0.45 0.50 0.51 0.49 0.50 0.51 0.51 0.52 0.53 0.55 0.57 0.56 0.55 0.53 0.52 0.52 0.55 0.57 0.59 0.60 0.64 0.66 0.69 0.70 0.67 0.65 0.64 0.65 0.67 0.67 0.73 0.71 0.66

GEFSNE_prec_meanprecacc_246.txt.gz
Total_Precipitation_Accumulation
1.89 1.88 1.88 1.79 1.79 1.79 1.89 1.98 2.02 1.83 1.58 1.31 1.13 1.01 1.07 1.08 1.29 1.21 1.04 1.08 1.01 0.91 0.85 0.80 0.90 1.07 1.31 1.44 1.56 1.70 1.86 1.95 2.02 1.93 1.85 1.83 1.84 1.96
1.66 1.69 1.74 1.71 1.77 1.77 1.82 1.90 1.89 1.83 1.68 1.41 1.21 1.12 1.16 1.05 1.18 1.07 1.13 1.29 1.10 0.96 0.89 0.83 0.84 0.93 1.01 1.04 1.07 1.05 1.08 1.14 1.20 1.33 1.38 1.43 1.48 1.61
1.32 1.38 1.44 1.43 1.55 1.59 1.68 1.76 1.80 1.75 1.54 1.35 1.21 1.21 1.22 1.20 1.17 1.09 1.14 1.19 1.08 0.98 0.85 0.77 0.79 0.86 0.91 0.95 0.95 0.91 0.88 0.82 0.87 0.98 1.09 1.17 1.17 1.17
1.12 1.18 1.18 1.19 1.30 1.38 1.44 1.53 1.66 1.69 1.58 1.40 1.28 1.21 1.11 1.12 1.27 1.31 1.29 1.21 1.21 1.26 1.14 0.97 0.90 0.88 0.85 0.90 0.96 0.92 0.87 0.80 0.74 0.80 0.89 0.99 1.07 1.09
0.81 0.86 0.92 0.99 1.15 1.21 1.23 1.33 1.48 1.52 1.60 1.48 1.38 1.31 1.16 1.08 1.25 1.27 1.33 1.50 1.41 1.48 1.60 1.39 1.14 0.99 0.87 0.91 0.97 0.96 0.89 0.83 0.72 0.72 0.84 0.92 0.93 0.97
0.72 0.72 0.73 0.77 0.88 1.01 1.10 1.27 1.42 1.53 1.57 1.51 1.48 1.43 1.35 1.24 1.31 1.41 1.47 1.57 1.60 1.43 1.45 1.42 1.37 1.25 1.06 0.94 1.00 1.05 1.03 0.96 0.89 0.82 0.84 0.87 0.86 0.86
0.67 0.70 0.70 0.70 0.71 0.75 0.74 0.93 1.13 1.36 1.45 1.50 1.51 1.54 1.48 1.43 1.37 1.50 1.57 1.68 1.78 1.76 1.62 1.44 1.41 1.26 1.14 1.06 1.02 1.06 1.11 1.09 1.04 0.95 0.90 0.91 0.88 0.87
0.72 0.73 0.71 0.68 0.73 0.71 0.68 0.70 0.82 0.97 1.14 1.25 1.32 1.38 1.43 1.53 1.64 1.63 1.60 1.66 1.72 1.73 1.60 1.61 1.55 1.44 1.27 1.09 1.09 1.11 1.14 1.15 1.12 1.06 0.97 0.88 0.86 0.89
0.72 0.82 0.86 0.78 0.79 0.81 0.82 0.75 0.68 0.69 0.84 1.05 1.17 1.22 1.28 1.36 1.58 1.62 1.63 1.66 1.58 1.61 1.47 1.51 1.47 1.34 1.25 1.21 1.22 1.14 1.15 1.12 1.13 1.07 1.03 0.97 0.90 0.92
0.63 0.75 0.99 1.02 0.91 0.86 0.89 0.96 0.86 0.71 0.71 0.77 0.94 1.09 1.13 1.27 1.58 1.80 1.74 1.53 1.48 1.54 1.44 1.45 1.38 1.25 1.18 1.16 1.21 1.12 1.10 1.07 1.03 1.04 1.01 0.97 0.93 0.93
0.53 0.65 0.81 0.95 0.90 0.87 0.85 0.91 0.93 0.82 0.77 0.80 0.76 0.83 0.96 1.14 1.38 1.64 1.75 1.70 1.53 1.49 1.37 1.29 1.29 1.27 1.29 1.24 1.19 1.18 1.09 1.08 1.08 1.07 1.08 1.07 1.03 1.08
0.41 0.57 0.75 0.73 0.69 0.76 0.84 0.94 1.02 0.86 0.77 0.86 0.84 0.86 0.88 1.06 1.39 1.60 1.73 1.72 1.59 1.54 1.42 1.33 1.32 1.32 1.50 1.44 1.26 1.21 1.14 1.16 1.17 1.15 1.14 1.17 1.22 1.19
0.38 0.51 0.56 0.53 0.52 0.61 0.72 0.82 0.96 0.83 0.83 0.97 1.01 0.98 1.04 1.08 1.19 1.33 1.54 1.67 1.60 1.44 1.36 1.46 1.52 1.44 1.41 1.41 1.37 1.28 1.19 1.12 1.11 1.13 1.14 1.15 1.20 1.18
0.40 0.45 0.44 0.42 0.43 0.48 0.52 0.62 0.75 0.83 0.90 1.03 1.10 1.07 1.02 1.06 1.11 1.15 1.25 1.36 1.36 1.32 1.23 1.19 1.29 1.27 1.21 1.11 1.09 1.16 1.18 1.14 1.09 1.10 1.12 1.23 1.21 1.22
0.38 0.43 0.45 0.46 0.48 0.46 0.47 0.55 0.69 0.86 1.04 1.05 0.97 0.94 0.96 1.00 1.01 1.12 1.19 1.23 1.25 1.24 1.14 0.99 1.00 1.06 1.06 0.99 0.91 0.92 1.03 1.08 1.04 1.01 1.02 1.06 1.08 1.12
0.42 0.45 0.47 0.50 0.50 0.46 0.52 0.64 0.78 0.97 1.06 0.99 0.92 0.80 0.80 0.92 0.97 0.98 1.02 1.04 1.08 1.12 1.04 0.98 0.95 0.95 0.96 0.93 0.88 0.84 0.85 0.91 0.96 0.98 0.98 0.96 0.95 0.99
0.40 0.47 0.52 0.57 0.61 0.66 0.75 0.82 0.83 0.86 0.92 0.84 0.88 0.81 0.75 0.80 0.83 0.83 0.84 0.81 0.82 0.81 0.84 0.86 0.89 0.87 0.85 0.87 0.89 0.85 0.84 0.81 0.80 0.90 0.98 0.97 0.91 0.92
0.45 0.50 0.57 0.66 0.72 0.80 0.86 0.86 0.84 0.83 0.85 0.83 0.81 0.79 0.71 0.70 0.71 0.72 0.76 0.79 0.82 0.78 0.70 0.67 0.69 0.75 0.79 0.85 0.85 0.80 0.82 0.84 0.84 0.87 0.88 0.87 0.80 0.79
0.42 0.51 0.70 0.75 0.74 0.79 0.84 0.83 0.74 0.68 0.68 0.70 0.68 0.66 0.62 0.61 0.64 0.65 0.66 0.72 0.73 0.69 0.69 0.69 0.70 0.74 0.76 0.69 0.64 0.63 0.73 0.77 0.79 0.82 0.84 0.82 0.77 0.74
0.35 0.43 0.57 0.61 0.66 0.72 0.72 0.69 0.63 0.57 0.56 0.55 0.54 0.54 0.55 0.56 0.56 0.59 0.59 0.59 0.64 0.64 0.62 0.62 0.63 0.68 0.73 0.74 0.67 0.57 0.58 0.66 0.69 0.73 0.75 0.78 0.81 0.91
0.36 0.43 0.48 0.53 0.55 0.56 0.56 0.56 0.55 0.56 0.55 0.54 0.53 0.55 0.55 0.55 0.53 0.50 0.53 0.58 0.58 0.56 0.58 0.57 0.58 0.69 0.74 0.79 0.75 0.59 0.51 0.60 0.66 0.66 0.71 0.81 0.80 0.75
0.35 0.36 0.40 0.43 0.46 0.48 0.50 0.51 0.52 0.55 0.56 0.55 0.53 0.55 0.58 0.58 0.56 0.53 0.52 0.53 0.55 0.57 0.57 0.57 0.59 0.63 0.68 0.75 0.70 0.60 0.57 0.58 0.65 0.76 0.76 0.76 0.72 0.68
0.36 0.35 0.36 0.40 0.44 0.49 0.53 0.55 0.54 0.55 0.57 0.58 0.59 0.59 0.61 0.62 0.61 0.59 0.57 0.56 0.56 0.58 0.60 0.61 0.62 0.65 0.67 0.69 0.70 0.68 0.65 0.65 0.66 0.67 0.67 0.73 0.72 0.66

GEFSNE_prec_meanprecacc_252.txt.gz
Total_Precipitation_Accumulation
1.93 1.91 1.92 1.83 1.82 1.83 1.94 2.04 2.08 1.90 1.64 1.35 1.17 1.04 1.09 1.08 1.30 1.22 1.05 1.09 1.02 0.92 0.85 0.80 0.92 1.10 1.35 1.47 1.58 1.73 1.88 1.97 2.04 1.94 1.88 1.86 1.86 1.98
1.71 1.74 1.78 1.75 1.82 1.82 1.87 1.95 1.94 1.89 1.76 1.46 1.24 1.16 1.18 1.06 1.18 1.08 1.13 1.30 1.12 0.98 0.91 0.85 0.86 0.94 1.03 1.06 1.09 1.07 1.10 1.15 1.21 1.34 1.40 1.46 1.51 1.63
1.34 1.40 1.48 1.47 1.62 1.65 1.72 1.80 1.83 1.80 1.59 1.38 1.24 1.25 1.26 1.22 1.18 1.09 1.14 1.19 1.09 1.00 0.88 0.78 0.80 0.86 0.92 0.96 0.96 0.92 0.91 0.84 0.88 0.99 1.11 1.19 1.19 1.19
1.15 1.20 1.21 1.23 1.34 1.42 1.49 1.56 1.68 1.73 1.63 1.46 1.33 1.25 1.13 1.13 1.27 1.31 1.29 1.21 1.21 1.26 1.15 0.99 0.92 0.89 0.86 0.91 0.97 0.93 0.90 0.83 0.75 0.81 0.90 1.01 1.09 1.10
0.83 0.89 0.94 1.03 1.19 1.24 1.27 1.36 1.50 1.55 1.65 1.53 1.43 1.34 1.18 1.11 1.26 1.28 1.34 1.50 1.41 1.48 1.60 1.40 1.15 0.99 0.88 0.92 0.98 0.96 0.91 0.87 0.75 0.74 0.85 0.93 0.94 0.98
0.74 0.73 0.74 0.80 0.91 1.05 1.13 1.30 1.45 1.58 1.64 1.57 1.52 1.47 1.39 1.27 1.33 1.43 1.48 1.58 1.61 1.44 1.45 1.43 1.37 1.25 1.06 0.94 1.00 1.05 1.04 0.98 0.92 0.85 0.85 0.88 0.87 0.87
0.70 0.72 0.72 0.72 0.75 0.80 0.79 0.96 1.17 1.41 1.52 1.56 1.55 1.57 1.52 1.46 1.39 1.52 1.58 1.70 1.79 1.77 1.62 1.45 1.41 1.26 1.14 1.06 1.03 1.07 1.11 1.10 1.06 0.97 0.91 0.92 0.89 0.87
0.76 0.76 0.73 0.70 0.76 0.74 0.71 0.73 0.85 1.00 1.18 1.30 1.36 1.41 1.47 1.56 1.67 1.67 1.64 1.69 1.74 1.74 1.61 1.62 1.55 1.44 1.27 1.09 1.09 1.11 1.14 1.16 1.13 1.07 0.98 0.90 0.88 0.90
0.74 0.86 0.89 0.80 0.81 0.83 0.84 0.77 0.71 0.71 0.86 1.07 1.20 1.24 1.31 1.38 1.62 1.67 1.67 1.70 1.60 1.62 1.47 1.52 1.47 1.34 1.25 1.21 1.22 1.14 1.15 1.13 1.14 1.09 1.05 0.98 0.92 0.94
0.66 0.77 1.02 1.04 0.93 0.89 0.93 1.00 0.89 0.72 0.72 0.78 0.96 1.11 1.14 1.28 1.61 1.83 1.78 1.57 1.51 1.56 1.45 1.46 1.38 1.25 1.18 1.16 1.22 1.12 1.10 1.07 1.04 1.04 1.02 0.99 0.94 0.95
0.56 0.67 0.83 0.96 0.92 0.89 0.89 0.97 0.98 0.85 0.79 0.81 0.78 0.86 0.99 1.16 1.41 1.67 1.79 1.73 1.56 1.50 1.38 1.30 1.30 1.27 1.29 1.25 1.20 1.19 1.10 1.09 1.08 1.07 1.09 1.07 1.04 1.09
0.43 0.60 0.78 0.76 0.73 0.78 0.87 0.98 1.08 0.91 0.81 0.89 0.86 0.88 0.90 1.09 1.42 1.62 1.75 1.74 1.62 1.56 1.44 1.35 1.33 1.34 1.50 1.45 1.27 1.22 1.15 1.17 1.18 1.15 1.14 1.17 1.23 1.20
0.40 0.53 0.58 0.55 0.55 0.64 0.75 0.85 1.00 0.89 0.90 1.03 1.05 1.01 1.08 1.11 1.21 1.35 1.56 1.70 1.63 1.47 1.38 1.48 1.54 1.46 1.43 1.42 1.38 1.29 1.20 1.13 1.12 1.13 1.15 1.16 1.21 1.19
0.43 0.47 0.47 0.45 0.46 0.50 0.54 0.65 0.79 0.90 0.99 1.12 1.17 1.12 1.06 1.10 1.15 1.18 1.28 1.39 1.39 1.34 1.25 1.21 1.31 1.30 1.24 1.12 1.10 1.16 1.18 1.15 1.10 1.10 1.13 1.24 1.22 1.23
0.41 0.47 0.49 0.50 0.51 0.49 0.49 0.58 0.73 0.90 1.09 1.13 1.04 0.98 1.01 1.04 1.05 1.16 1.23 1.26 1.27 1.26 1.15 1.00 1.01 1.08 1.07 1.01 0.92 0.93 1.04 1.09 1.05 1.01 1.02 1.07 1.09 1.13
0.44 0.48 0.49 0.52 0.51 0.48 0.53 0.66 0.80 1.00 1.09 1.04 0.99 0.85 0.84 0.97 1.02 1.03 1.06 1.07 1.11 1.14 1.06 0.99 0.96 0.96 0.98 0.94 0.90 0.85 0.85 0.91 0.96 0.99 0.98 0.97 0.96 1.00
0.41 0.48 0.53 0.58 0.62 0.67 0.75 0.83 0.84 0.89 0.94 0.88 0.93 0.86 0.80 0.84 0.88 0.88 0.89 0.85 0.86 0.85 0.85 0.87 0.90 0.88 0.86 0.88 0.90 0.85 0.85 0.81 0.81 0.91 0.99 0.97 0.92 0.93
0.47 0.51 0.58 0.67 0.73 0.81 0.87 0.86 0.84 0.85 0.87 0.85 0.85 0.84 0.77 0.76 0.77 0.78 0.81 0.83 0.86 0.82 0.73 0.69 0.71 0.77 0.81 0.86 0.86 0.80 0.82 0.84 0.85 0.87 0.88 0.88 0.81 0.80
0.44 0.53 0.72 0.76 0.75 0.80 0.85 0.85 0.75 0.69 0.71 0.73 0.71 0.70 0.68 0.68 0.72 0.72 0.74 0.78 0.78 0.73 0.71 0.72 0.72 0.76 0.77 0.70 0.64 0.63 0.73 0.78 0.79 0.82 0.84 0.83 0.78 0.74
0.37 0.45 0.59 0.63 0.67 0.73 0.73 0.71 0.65 0.59 0.59 0.58 0.57 0.58 0.60 0.63 0.65 0.68 0.67 0.67 0.70 0.68 0.65 0.65 0.67 0.71 0.75 0.76 0.68 0.58 0.58 0.67 0.70 0.73 0.75 0.79 0.81 0.92
0.38 0.45 0.50 0.55 0.57 0.57 0.57 0.57 0.58 0.59 0.58 0.57 0.57 0.58 0.59 0.60 0.60 0.58 0.61 0.65 0.64 0.61 0.62 0.60 0.61 0.73 0.77 0.82 0.78 0.61 0.52 0.61 0.67 0.67 0.72 0.81 0.81 0.76
0.37 0.38 0.43 0.46 0.48 0.49 0.52 0.54 0.55 0.59 0.60 0.58 0.57 0.59 0.63 0.64 0.61 0.60 0.59 0.59 0.60 0.61 0.60 0.60 0.62 0.67 0.73 0.79 0.72 0.62 0.58 0.59 0.66 0.77 0.77 0.76 0.73 0.69
0.38 0.36 0.38 0.41 0.45 0.50 0.55 0.58 0.57 0.59 0.62 0.62 0.63 0.65 0.68 0.69 0.67 0.65 0.64 0.63 0.62 0.62 0.64 0.65 0.66 0.70 0.73 0.74 0.73 0.70 0.67 0.66 0.67 0.69 0.68 0.74 0.73 0.67

GEFSNE_prec_meanprecacc_258.txt.gz
Total_Precipitation_Accumulation
1.95 1.92 1.93 1.85 1.85 1.87 1.98 2.10 2.13 1.93 1.66 1.37 1.19 1.07 1.11 1.10 1.31 1.23 1.05 1.10 1.02 0.92 0.85 0.80 0.92 1.11 1.36 1.48 1.59 1.73 1.90 1.99 2.05 1.96 1.89 1.88 1.90 2.01
1.72 1.75 1.79 1.77 1.84 1.85 1.92 2.02 2.01 1.95 1.80 1.49 1.26 1.18 1.21 1.07 1.20 1.09 1.14 1.30 1.12 0.98 0.91 0.85 0.87 0.96 1.04 1.08 1.10 1.08 1.12 1.17 1.23 1.35 1.41 1.49 1.55 1.67
1.36 1.42 1.49 1.49 1.63 1.67 1.77 1.86 1.90 1.86 1.64 1.42 1.27 1.27 1.27 1.24 1.19 1.10 1.15 1.19 1.09 1.00 0.88 0.79 0.81 0.88 0.93 0.97 0.97 0.93 0.92 0.86 0.89 1.01 1.14 1.22 1.22 1.23
1.17 1.22 1.22 1.24 1.36 1.44 1.52 1.61 1.74 1.78 1.68 1.50 1.35 1.26 1.14 1.14 1.28 1.32 1.29 1.21 1.21 1.27 1.16 1.00 0.93 0.90 0.87 0.92 0.98 0.94 0.92 0.84 0.76 0.83 0.94 1.04 1.12 1.13
0.86 0.91 0.97 1.06 1.21 1.26 1.28 1.39 1.55 1.60 1.70 1.57 1.45 1.36 1.19 1.12 1.28 1.30 1.34 1.51 1.42 1.49 1.61 1.40 1.15 1.00 0.89 0.92 0.99 0.97 0.92 0.88 0.75 0.75 0.90 0.96 0.97 1.00
0.79 0.77 0.77 0.83 0.94 1.08 1.15 1.32 1.49 1.62 1.68 1.60 1.55 1.49 1.40 1.28 1.34 1.45 1.51 1.60 1.62 1.45 1.46 1.43 1.37 1.25 1.06 0.95 1.00 1.05 1.04 0.99 0.93 0.86 0.89 0.91 0.89 0.89
0.73 0.75 0.75 0.75 0.78 0.83 0.82 0.99 1.20 1.45 1.56 1.61 1.59 1.59 1.53 1.47 1.39 1.53 1.60 1.72 1.80 1.78 1.64 1.46 1.41 1.27 1.14 1.06 1.03 1.07 1.12 1.11 1.07 0.98 0.94 0.95 0.91 0.89
0.77 0.78 0.75 0.73 0.80 0.79 0.75 0.77 0.89 1.04 1.23 1.34 1.40 1.43 1.48 1.57 1.67 1.67 1.65 1.71 1.76 1.75 1.62 1.63 1.56 1.45 1.28 1.10 1.10 1.11 1.14 1.17 1.14 1.08 1.00 0.92 0.90 0.92
0.76 0.87 0.90 0.82 0.84 0.86 0.88 0.80 0.74 0.75 0.91 1.12 1.24 1.26 1.33 1.40 1.62 1.67 1.68 1.71 1.62 1.64 1.49 1.53 1.48 1.35 1.26 1.22 1.23 1.15 1.16 1.13 1.14 1.10 1.07 1.00 0.93 0.96
0.69 0.79 1.03 1.05 0.94 0.91 0.96 1.02 0.91 0.76 0.76 0.82 0.99 1.13 1.17 1.31 1.63 1.85 1.79 1.59 1.53 1.57 1.46 1.46 1.39 1.26 1.18 1.16 1.22 1.13 1.11 1.08 1.05 1.05 1.04 1.01 0.96 0.96
0.59 0.71 0.86 0.98 0.94 0.91 0.91 0.98 1.00 0.87 0.83 0.85 0.82 0.90 1.02 1.19 1.44 1.70 1.80 1.74 1.57 1.51 1.39 1.31 1.31 1.28 1.30 1.25 1.21 1.20 1.11 1.09 1.08 1.08 1.10 1.09 1.06 1.11
0.46 0.64 0.82 0.80 0.77 0.82 0.88 0.99 1.09 0.92 0.83 0.92 0.89 0.92 0.94 1.12 1.44 1.64 1.76 1.75 1.62 1.56 1.45 1.36 1.34 1.35 1.51 1.45 1.28 1.23 1.16 1.18 1.18 1.16 1.14 1.18 1.24 1.21
0.42 0.56 0.61 0.58 0.58 0.67 0.77 0.87 1.02 0.90 0.91 1.06 1.09 1.05 1.11 1.15 1.24 1.37 1.58 1.71 1.64 1.48 1.40 1.50 1.56 1.47 1.45 1.43 1.39 1.30 1.21 1.14 1.13 1.14 1.15 1.16 1.21 1.20
0.44 0.49 0.49 0.47 0.48 0.53 0.56 0.66 0.81 0.92 1.00 1.14 1.20 1.16 1.11 1.14 1.17 1.20 1.30 1.41 1.40 1.36 1.28 1.23 1.33 1.32 1.25 1.13 1.11 1.17 1.19 1.15 1.11 1.11 1.13 1.24 1.22 1.24
0.43 0.48 0.51 0.53 0.54 0.51 0.51 0.60 0.74 0.91 1.10 1.14 1.06 1.00 1.04 1.08 1.08 1.19 1.26 1.28 1.29 1.27 1.17 1.01 1.02 1.09 1.09 1.02 0.93 0.94 1.04 1.10 1.05 1.02 1.03 1.07 1.09 1.13
0.45 0.49 0.51 0.53 0.54 0.50 0.55 0.67 0.81 1.01 1.10 1.04 1.00 0.86 0.86 1.00 1.07 1.07 1.10 1.10 1.13 1.16 1.07 1.01 0.97 0.97 0.99 0.95 0.90 0.86 0.86 0.92 0.97 0.99 0.99 0.97 0.96 1.00
0.43 0.49 0.53 0.59 0.62 0.68 0.77 0.84 0.85 0.89 0.95 0.88 0.93 0.87 0.81 0.87 0.92 0.92 0.94 0.91 0.89 0.86 0.87 0.89 0.92 0.89 0.87 0.89 0.92 0.86 0.86 0.82 0.82 0.92 1.00 0.98 0.92 0.93
0.50 0.52 0.59 0.68 0.74 0.81 0.87 0.87 0.85 0.85 0.88 0.85 0.85 0.85 0.79 0.78 0.79 0.81 0.86 0.89 0.91 0.85 0.76 0.72 0.74 0.80 0.83 0.89 0.88 0.82 0.83 0.85 0.86 0.88 0.89 0.88 0.81 0.80
0.50 0.57 0.74 0.77 0.75 0.80 0.85 0.85 0.75 0.70 0.71 0.73 0.72 0.71 0.69 0.70 0.74 0.75 0.77 0.82 0.83 0.77 0.75 0.75 0.76 0.81 0.82 0.74 0.67 0.66 0.75 0.79 0.81 0.83 0.85 0.83 0.78 0.75
0.42 0.50 0.63 0.66 0.68 0.74 0.73 0.71 0.66 0.60 0.60 0.59 0.58 0.58 0.61 0.65 0.67 0.70 0.70 0.70 0.74 0.73 0.70 0.70 0.70 0.74 0.80 0.79 0.71 0.60 0.60 0.69 0.72 0.75 0.76 0.79 0.81 0.92
0.42 0.48 0.53 0.58 0.60 0.59 0.59 0.59 0.59 0.61 0.59 0.58 0.58 0.59 0.61 0.63 0.62 0.61 0.64 0.68 0.67 0.65 0.66 0.65 0.65 0.77 0.81 0.85 0.80 0.62 0.53 0.63 0.69 0.68 0.73 0.82 0.81 0.76
0.42 0.42 0.47 0.49 0.51 0.52 0.54 0.56 0.57 0.61 0.61 0.59 0.58 0.60 0.64 0.66 0.65 0.64 0.63 0.63 0.63 0.65 0.64 0.63 0.65 0.71 0.78 0.84 0.76 0.64 0.59 0.60 0.68 0.79 0.79 0.78 0.75 0.70
0.42 0.41 0.42 0.45 0.49 0.54 0.59 0.61 0.59 0.61 0.64 0.63 0.64 0.66 0.69 0.70 0.69 0.68 0.68 0.67 0.66 0.67 0.68 0.69 0.71 0.75 0.78 0.79 0.78 0.73 0.69 0.68 0.69 0.70 0.71 0.77 0.75 0.69

GEFSNE_prec_meanprecacc_264.txt.gz
Total_Precipitation_Accumulation
1.96 1.93 1.93 1.86 1.87 1.90 2.01 2.12 2.16 1.96 1.70 1.41 1.24 1.10 1.14 1.13 1.34 1.25 1.07 1.12 1.04 0.93 0.87 0.82 0.93 1.12 1.37 1.49 1.60 1.74 1.91 2.00 2.06 1.96 1.91 1.90 1.92 2.03
1.73 1.76 1.80 1.77 1.84 1.87 1.94 2.04 2.03 1.97 1.82 1.51 1.29 1.21 1.23 1.10 1.22 1.11 1.16 1.32 1.14 0.99 0.92 0.86 0.87 0.96 1.05 1.10 1.11 1.10 1.14 1.18 1.23 1.36 1.42 1.50 1.57 1.69
1.38 1.43 1.51 1.50 1.64 1.68 1.78 1.88 1.92 1.88 1.67 1.44 1.30 1.30 1.29 1.25 1.22 1.13 1.17 1.21 1.11 1.02 0.89 0.80 0.82 0.88 0.94 1.00 1.00 0.96 0.95 0.88 0.90 1.03 1.15 1.23 1.24 1.28
1.20 1.24 1.24 1.26 1.37 1.45 1.53 1.62 1.76 1.81 1.71 1.52 1.38 1.28 1.16 1.16 1.30 1.33 1.30 1.22 1.23 1.29 1.17 1.01 0.94 0.91 0.88 0.94 1.00 0.96 0.93 0.86 0.78 0.86 0.97 1.08 1.15 1.19
0.91 0.94 0.99 1.08 1.23 1.27 1.29 1.40 1.56 1.63 1.73 1.60 1.47 1.38 1.21 1.14 1.30 1.31 1.35 1.51 1.43 1.50 1.62 1.41 1.17 1.03 0.91 0.94 1.01 0.99 0.93 0.90 0.78 0.79 0.94 1.02 1.04 1.05
0.81 0.80 0.79 0.84 0.96 1.10 1.18 1.34 1.50 1.64 1.72 1.65 1.58 1.52 1.42 1.29 1.36 1.46 1.52 1.60 1.63 1.46 1.47 1.44 1.38 1.27 1.08 0.96 1.02 1.07 1.07 1.01 0.96 0.90 0.95 0.97 0.99 0.95
0.74 0.77 0.77 0.77 0.80 0.86 0.85 1.03 1.24 1.48 1.59 1.66 1.65 1.64 1.56 1.48 1.40 1.53 1.61 1.72 1.81 1.78 1.64 1.46 1.42 1.27 1.15 1.07 1.04 1.08 1.13 1.14 1.10 1.01 0.97 0.99 0.95 0.96
0.78 0.79 0.76 0.74 0.81 0.80 0.78 0.80 0.92 1.07 1.25 1.37 1.44 1.47 1.51 1.59 1.68 1.68 1.65 1.71 1.76 1.75 1.63 1.64 1.57 1.45 1.28 1.10 1.10 1.12 1.15 1.17 1.15 1.09 1.02 0.95 0.93 0.95
0.78 0.88 0.91 0.83 0.84 0.87 0.90 0.82 0.75 0.78 0.93 1.14 1.26 1.29 1.36 1.44 1.65 1.69 1.69 1.72 1.63 1.64 1.49 1.54 1.49 1.36 1.27 1.23 1.24 1.16 1.16 1.14 1.15 1.11 1.08 1.03 0.96 0.98
0.71 0.81 1.04 1.06 0.95 0.92 0.98 1.04 0.93 0.77 0.77 0.83 1.01 1.15 1.20 1.35 1.68 1.88 1.82 1.60 1.54 1.58 1.47 1.48 1.41 1.28 1.20 1.18 1.24 1.14 1.12 1.08 1.05 1.07 1.06 1.03 0.99 0.99
0.61 0.73 0.88 1.00 0.96 0.94 0.92 0.99 1.00 0.88 0.84 0.86 0.83 0.91 1.05 1.22 1.49 1.75 1.84 1.77 1.58 1.52 1.40 1.32 1.32 1.29 1.31 1.27 1.22 1.21 1.11 1.10 1.09 1.09 1.12 1.11 1.08 1.13
0.48 0.65 0.84 0.82 0.79 0.85 0.91 1.00 1.10 0.93 0.85 0.93 0.90 0.93 0.95 1.14 1.48 1.67 1.80 1.79 1.65 1.58 1.46 1.37 1.35 1.36 1.53 1.47 1.29 1.24 1.17 1.18 1.19 1.16 1.16 1.20 1.26 1.23
0.44 0.57 0.62 0.60 0.60 0.70 0.80 0.89 1.03 0.93 0.93 1.07 1.11 1.06 1.12 1.16 1.26 1.40 1.61 1.75 1.67 1.50 1.42 1.52 1.57 1.49 1.46 1.45 1.40 1.31 1.22 1.15 1.13 1.15 1.16 1.17 1.23 1.21
0.46 0.51 0.51 0.49 0.51 0.56 0.60 0.69 0.84 0.95 1.03 1.17 1.22 1.18 1.12 1.15 1.19 1.22 1.32 1.43 1.43 1.39 1.30 1.26 1.35 1.34 1.27 1.14 1.11 1.18 1.20 1.16 1.12 1.12 1.14 1.25 1.23 1.25
0.45 0.50 0.53 0.55 0.56 0.53 0.55 0.62 0.76 0.93 1.12 1.16 1.08 1.02 1.05 1.10 1.10 1.21 1.28 1.31 1.31 1.30 1.19 1.04 1.05 1.12 1.11 1.03 0.94 0.95 1.05 1.10 1.06 1.03 1.04 1.08 1.10 1.14
0.48 0.51 0.53 0.55 0.55 0.51 0.58 0.69 0.82 1.02 1.11 1.06 1.02 0.88 0.87 1.02 1.08 1.10 1.13 1.13 1.16 1.18 1.09 1.02 0.99 1.00 1.01 0.97 0.92 0.87 0.87 0.93 0.98 1.01 1.00 0.98 0.97 1.01
0.46 0.52 0.57 0.62 0.65 0.70 0.79 0.86 0.86 0.89 0.95 0.89 0.94 0.88 0.83 0.88 0.93 0.94 0.96 0.93 0.91 0.89 0.89 0.90 0.93 0.91 0.89 0.92 0.95 0.89 0.88 0.84 0.83 0.94 1.02 1.00 0.93 0.94
0.53 0.56 0.63 0.72 0.78 0.84 0.90 0.89 0.86 0.87 0.89 0.87 0.87 0.85 0.80 0.79 0.81 0.82 0.87 0.91 0.93 0.87 0.78 0.73 0.75 0.81 0.85 0.91 0.91 0.84 0.86 0.88 0.88 0.91 0.92 0.90 0.83 0.81
0.53 0.61 0.77 0.81 0.78 0.83 0.87 0.87 0.77 0.71 0.72 0.74 0.73 0.72 0.70 0.71 0.75 0.76 0.78 0.84 0.85 0.80 0.78 0.78 0.78 0.82 0.83 0.75 0.68 0.68 0.78 0.82 0.84 0.86 0.87 0.85 0.79 0.76
0.45 0.54 0.67 0.70 0.72 0.77 0.76 0.73 0.67 0.61 0.61 0.60 0.59 0.60 0.63 0.66 0.68 0.72 0.71 0.71 0.76 0.75 0.73 0.73 0.73 0.76 0.81 0.81 0.73 0.62 0.64 0.72 0.75 0.77 0.78 0.80 0.82 0.93
0.44 0.51 0.57 0.61 0.63 0.63 0.63 0.62 0.62 0.63 0.61 0.60 0.60 0.61 0.63 0.64 0.64 0.62 0.65 0.70 0.69 0.67 0.69 0.68 0.67 0.78 0.82 0.86 0.82 0.63 0.56 0.67 0.73 0.72 0.76 0.84 0.83 0.77
0.43 0.44 0.50 0.53 0.54 0.56 0.58 0.60 0.61 0.64 0.63 0.62 0.60 0.63 0.67 0.69 0.67 0.66 0.65 0.65 0.65 0.66 0.66 0.65 0.68 0.75 0.81 0.86 0.78 0.66 0.61 0.62 0.70 0.83 0.82 0.82 0.77 0.72
0.44 0.43 0.44 0.48 0.52 0.57 0.62 0.65 0.64 0.65 0.67 0.66 0.67 0.69 0.71 0.73 0.72 0.71 0.70 0.69 0.68 0.69 0.71 0.72 0.75 0.80 0.83 0.83 0.80 0.75 0.71 0.70 0.71 0.73 0.74 0.80 0.79 0.72

GEFSNE_prec_meanprecacc_270.txt.gz
Total_Precipitation_Accumulation
1.97 1.95 1.96 1.88 1.88 1.91 2.04 2.16 2.19 1.98 1.72 1.45 1.28 1.13 1.16 1.15 1.36 1.27 1.09 1.14 1.06 0.97 0.93 0.90 1.00 1.18 1.41 1.51 1.61 1.75 1.91 2.01 2.07 1.97 1.92 1.92 1.94 2.05
1.74 1.77 1.82 1.79 1.86 1.88 1.96 2.06 2.06 2.00 1.85 1.54 1.33 1.25 1.27 1.13 1.26 1.15 1.18 1.35 1.18 1.04 0.97 0.91 0.91 1.00 1.08 1.11 1.12 1.11 1.15 1.19 1.25 1.37 1.44 1.51 1.58 1.71
1.41 1.45 1.52 1.51 1.65 1.69 1.80 1.90 1.94 1.91 1.70 1.47 1.32 1.32 1.34 1.30 1.26 1.17 1.20 1.24 1.14 1.05 0.92 0.82 0.84 0.89 0.96 1.01 1.02 0.97 0.97 0.90 0.92 1.04 1.16 1.25 1.25 1.30
1.24 1.27 1.27 1.28 1.39 1.47 1.54 1.62 1.77 1.83 1.74 1.56 1.40 1.30 1.18 1.20 1.34 1.37 1.32 1.24 1.25 1.31 1.19 1.03 0.96 0.93 0.90 0.96 1.02 0.98 0.96 0.89 0.80 0.87 0.98 1.10 1.18 1.22
0.95 0.98 1.02 1.10 1.26 1.29 1.30 1.41 1.57 1.64 1.75 1.63 1.50 1.40 1.23 1.16 1.32 1.33 1.36 1.52 1.43 1.51 1.63 1.43 1.19 1.05 0.94 0.97 1.03 1.01 0.95 0.92 0.79 0.80 0.96 1.05 1.09 1.10
0.84 0.83 0.82 0.87 0.99 1.13 1.20 1.36 1.51 1.65 1.73 1.67 1.61 1.55 1.45 1.32 1.38 1.47 1.53 1.61 1.64 1.46 1.48 1.46 1.40 1.29 1.11 0.99 1.04 1.09 1.08 1.02 0.97 0.93 0.99 1.03 1.06 1.04
0.76 0.79 0.80 0.81 0.83 0.88 0.87 1.05 1.25 1.49 1.60 1.68 1.67 1.67 1.59 1.52 1.42 1.55 1.62 1.73 1.82 1.79 1.65 1.47 1.43 1.29 1.17 1.10 1.06 1.09 1.15 1.16 1.13 1.05 1.02 1.02 1.01 1.03
0.80 0.80 0.77 0.76 0.85 0.84 0.81 0.82 0.94 1.09 1.27 1.39 1.46 1.50 1.55 1.62 1.71 1.70 1.67 1.73 1.78 1.76 1.63 1.64 1.58 1.47 1.30 1.13 1.13 1.14 1.16 1.18 1.15 1.10 1.03 0.97 0.96 1.01
0.80 0.89 0.92 0.83 0.86 0.89 0.92 0.84 0.77 0.79 0.95 1.16 1.27 1.31 1.39 1.47 1.68 1.71 1.70 1.73 1.64 1.66 1.51 1.55 1.50 1.37 1.29 1.25 1.26 1.17 1.18 1.14 1.16 1.11 1.09 1.05 0.99 1.03
0.74 0.83 1.06 1.07 0.96 0.94 0.99 1.05 0.94 0.78 0.78 0.84 1.01 1.16 1.21 1.38 1.71 1.91 1.84 1.62 1.55 1.59 1.48 1.49 1.41 1.28 1.21 1.18 1.25 1.15 1.13 1.09 1.06 1.07 1.06 1.05 1.02 1.02
0.64 0.75 0.89 1.01 0.98 0.96 0.94 1.00 1.01 0.89 0.85 0.87 0.83 0.92 1.06 1.25 1.52 1.80 1.88 1.79 1.59 1.53 1.41 1.33 1.33 1.30 1.31 1.27 1.23 1.22 1.12 1.10 1.09 1.09 1.12 1.12 1.10 1.15
0.50 0.68 0.86 0.84 0.82 0.88 0.93 1.02 1.11 0.94 0.85 0.94 0.92 0.93 0.96 1.15 1.50 1.71 1.84 1.81 1.66 1.59 1.47 1.37 1.36 1.37 1.54 1.48 1.30 1.25 1.18 1.19 1.20 1.17 1.16 1.20 1.27 1.25
0.46 0.59 0.64 0.63 0.64 0.74 0.83 0.91 1.05 0.94 0.95 1.09 1.12 1.08 1.13 1.17 1.27 1.42 1.64 1.78 1.69 1.52 1.43 1.53 1.58 1.50 1.47 1.45 1.41 1.33 1.23 1.16 1.14 1.15 1.16 1.18 1.24 1.23
0.48 0.53 0.53 0.52 0.55 0.60 0.63 0.71 0.86 0.97 1.05 1.18 1.24 1.20 1.14 1.16 1.20 1.24 1.34 1.46 1.46 1.40 1.32 1.27 1.36 1.34 1.27 1.15 1.12 1.19 1.21 1.17 1.13 1.13 1.15 1.26 1.24 1.26
0.47 0.53 0.55 0.57 0.59 0.57 0.58 0.64 0.78 0.95 1.14 1.18 1.09 1.03 1.07 1.11 1.12 1.24 1.31 1.33 1.35 1.33 1.22 1.06 1.07 1.13 1.11 1.04 0.94 0.95 1.06 1.11 1.07 1.04 1.05 1.09 1.11 1.15
0.50 0.54 0.55 0.57 0.58 0.54 0.61 0.72 0.85 1.04 1.13 1.08 1.03 0.89 0.89 1.03 1.10 1.12 1.16 1.17 1.20 1.23 1.12 1.04 1.00 1.01 1.03 0.98 0.93 0.88 0.88 0.94 1.00 1.02 1.02 1.00 0.99 1.02
0.49 0.55 0.59 0.64 0.67 0.72 0.82 0.89 0.89 0.93 0.98 0.90 0.96 0.90 0.84 0.90 0.94 0.95 0.98 0.95 0.94 0.91 0.91 0.92 0.94 0.92 0.90 0.93 0.96 0.89 0.88 0.84 0.84 0.95 1.04 1.02 0.95 0.96
0.56 0.59 0.65 0.74 0.80 0.86 0.92 0.91 0.89 0.89 0.91 0.89 0.89 0.88 0.82 0.81 0.82 0.84 0.88 0.93 0.95 0.88 0.79 0.75 0.76 0.83 0.86 0.91 0.91 0.85 0.87 0.88 0.89 0.92 0.93 0.92 0.84 0.82
0.55 0.63 0.80 0.83 0.81 0.85 0.90 0.89 0.79 0.73 0.75 0.77 0.76 0.75 0.73 0.73 0.77 0.78 0.80 0.86 0.87 0.82 0.79 0.80 0.80 0.84 0.85 0.77 0.69 0.68 0.79 0.83 0.84 0.87 0.88 0.86 0.80 0.77
0.46 0.56 0.70 0.73 0.75 0.79 0.78 0.76 0.70 0.64 0.64 0.63 0.61 0.62 0.65 0.69 0.72 0.75 0.74 0.73 0.78 0.78 0.76 0.76 0.76 0.78 0.83 0.82 0.74 0.63 0.64 0.73 0.76 0.79 0.79 0.81 0.83 0.94
0.45 0.52 0.59 0.64 0.66 0.66 0.66 0.65 0.65 0.66 0.64 0.62 0.62 0.63 0.65 0.67 0.67 0.65 0.68 0.72 0.72 0.70 0.72 0.70 0.69 0.81 0.84 0.89 0.84 0.65 0.57 0.68 0.75 0.73 0.77 0.85 0.84 0.78
0.44 0.45 0.51 0.55 0.57 0.59 0.61 0.62 0.63 0.67 0.66 0.64 0.63 0.65 0.69 0.71 0.70 0.69 0.69 0.69 0.69 0.70 0.69 0.68 0.71 0.78 0.85 0.91 0.81 0.68 0.63 0.64 0.72 0.84 0.84 0.84 0.79 0.73
0.45 0.43 0.45 0.49 0.54 0.60 0.65 0.67 0.65 0.68 0.70 0.69 0.68 0.71 0.74 0.76 0.75 0.74 0.74 0.73 0.72 0.74 0.75 0.77 0.80 0.85 0.87 0.87 0.84 0.79 0.74 0.72 0.73 0.76 0.76 0.83 0.81 0.74

GEFSNE_prec_meanprecacc_276.txt.gz
Total_Precipitation_Accumulation
1.99 1.98 2.00 1.90 1.91 1.94 2.08 2.21 2.24 2.02 1.77 1.49 1.31 1.17 1.21 1.20 1.40 1.30 1.11 1.15 1.07 0.99 0.96 0.94 1.06 1.25 1.47 1.57 1.66 1.79 1.95 2.04 2.09 2.00 1.95 1.95 1.99 2.10
1.75 1.78 1.83 1.80 1.87 1.90 1.99 2.09 2.09 2.04 1.88 1.58 1.38 1.29 1.31 1.18 1.31 1.19 1.21 1.37 1.19 1.06 0.98 0.94 0.97 1.07 1.14 1.16 1.16 1.14 1.17 1.21 1.27 1.40 1.47 1.55 1.61 1.73
1.42 1.47 1.53 1.53 1.67 1.71 1.82 1.92 1.96 1.94 1.73 1.50 1.36 1.37 1.38 1.36 1.32 1.22 1.23 1.26 1.17 1.07 0.94 0.85 0.89 0.95 1.01 1.05 1.05 1.00 0.98 0.91 0.93 1.06 1.19 1.28 1.29 1.32
1.27 1.32 1.31 1.32 1.43 1.51 1.58 1.66 1.81 1.87 1.78 1.60 1.43 1.34 1.23 1.26 1.40 1.43 1.37 1.29 1.28 1.33 1.22 1.06 1.00 0.97 0.93 0.98 1.04 1.00 0.96 0.89 0.80 0.88 1.00 1.12 1.20 1.24
0.97 1.00 1.04 1.14 1.30 1.35 1.36 1.47 1.62 1.69 1.80 1.67 1.53 1.42 1.25 1.21 1.38 1.38 1.41 1.57 1.47 1.53 1.65 1.45 1.22 1.08 0.96 0.99 1.04 1.02 0.95 0.92 0.80 0.82 0.98 1.07 1.10 1.11
0.85 0.84 0.83 0.89 1.03 1.17 1.25 1.41 1.58 1.72 1.79 1.71 1.64 1.58 1.47 1.35 1.44 1.53 1.57 1.65 1.67 1.49 1.50 1.47 1.41 1.31 1.12 1.01 1.06 1.11 1.10 1.04 0.99 0.94 1.00 1.04 1.07 1.06
0.78 0.81 0.81 0.82 0.84 0.90 0.90 1.09 1.30 1.55 1.66 1.72 1.70 1.70 1.62 1.54 1.46 1.60 1.65 1.76 1.84 1.81 1.67 1.49 1.45 1.30 1.18 1.11 1.08 1.11 1.17 1.17 1.14 1.06 1.03 1.04 1.02 1.05
0.83 0.82 0.79 0.76 0.86 0.85 0.82 0.85 0.98 1.14 1.32 1.43 1.49 1.52 1.57 1.64 1.74 1.75 1.71 1.76 1.80 1.78 1.65 1.66 1.59 1.48 1.32 1.14 1.15 1.16 1.18 1.20 1.17 1.10 1.04 0.98 0.97 1.03
0.83 0.92 0.94 0.84 0.86 0.90 0.94 0.86 0.79 0.82 0.98 1.19 1.31 1.33 1.41 1.49 1.71 1.75 1.75 1.75 1.65 1.68 1.53 1.57 1.51 1.39 1.30 1.27 1.28 1.19 1.19 1.16 1.17 1.13 1.10 1.06 1.01 1.05
0.75 0.85 1.08 1.09 0.97 0.95 1.01 1.07 0.95 0.80 0.80 0.86 1.04 1.19 1.24 1.40 1.74 1.95 1.89 1.65 1.57 1.61 1.50 1.50 1.42 1.29 1.21 1.19 1.26 1.17 1.14 1.10 1.07 1.08 1.07 1.06 1.03 1.04
0.65 0.77 0.91 1.04 1.00 0.98 0.96 1.02 1.03 0.91 0.87 0.90 0.87 0.95 1.09 1.27 1.55 1.84 1.94 1.84 1.63 1.55 1.42 1.34 1.34 1.31 1.33 1.28 1.24 1.23 1.13 1.12 1.11 1.10 1.14 1.13 1.11 1.17
0.52 0.69 0.89 0.86 0.85 0.91 0.96 1.05 1.14 0.97 0.88 0.97 0.93 0.96 0.99 1.19 1.54 1.75 1.89 1.87 1.70 1.62 1.49 1.39 1.37 1.38 1.55 1.49 1.31 1.26 1.19 1.20 1.20 1.18 1.17 1.21 1.28 1.27
0.50 0.62 0.67 0.66 0.67 0.77 0.87 0.94 1.08 0.97 0.98 1.12 1.15 1.09 1.15 1.18 1.30 1.45 1.68 1.84 1.74 1.54 1.45 1.55 1.60 1.51 1.48 1.46 1.42 1.34 1.25 1.17 1.15 1.16 1.17 1.18 1.24 1.24
0.52 0.58 0.57 0.56 0.59 0.65 0.67 0.73 0.89 1.00 1.07 1.21 1.26 1.22 1.16 1.18 1.22 1.26 1.37 1.51 1.52 1.44 1.34 1.30 1.38 1.36 1.28 1.16 1.13 1.20 1.22 1.19 1.14 1.14 1.15 1.27 1.25 1.28
0.51 0.58 0.61 0.63 0.64 0.62 0.63 0.69 0.82 0.98 1.16 1.20 1.11 1.05 1.09 1.13 1.14 1.26 1.34 1.38 1.41 1.39 1.24 1.09 1.09 1.14 1.13 1.05 0.95 0.96 1.07 1.13 1.08 1.04 1.05 1.10 1.12 1.16
0.55 0.60 0.63 0.65 0.63 0.59 0.66 0.76 0.89 1.08 1.16 1.10 1.05 0.91 0.92 1.07 1.14 1.16 1.20 1.20 1.24 1.28 1.16 1.06 1.03 1.04 1.05 1.00 0.94 0.88 0.88 0.95 1.00 1.03 1.03 1.00 0.99 1.02
0.55 0.61 0.66 0.72 0.73 0.78 0.86 0.93 0.93 0.97 1.03 0.94 0.99 0.93 0.87 0.94 0.99 0.99 1.03 1.00 0.97 0.95 0.97 0.95 0.96 0.95 0.93 0.96 0.98 0.91 0.89 0.85 0.85 0.96 1.05 1.02 0.96 0.96
0.61 0.64 0.72 0.81 0.85 0.90 0.95 0.94 0.92 0.93 0.95 0.93 0.93 0.92 0.85 0.85 0.87 0.89 0.92 0.97 0.99 0.92 0.83 0.80 0.79 0.86 0.90 0.95 0.94 0.87 0.89 0.90 0.90 0.94 0.95 0.93 0.85 0.83
0.58 0.67 0.86 0.89 0.85 0.88 0.93 0.92 0.82 0.76 0.78 0.80 0.80 0.79 0.77 0.77 0.81 0.82 0.84 0.89 0.92 0.86 0.84 0.85 0.85 0.87 0.88 0.79 0.71 0.70 0.81 0.85 0.87 0.89 0.91 0.88 0.82 0.77
0.48 0.58 0.73 0.76 0.78 0.82 0.81 0.78 0.73 0.66 0.66 0.66 0.64 0.65 0.67 0.72 0.76 0.79 0.78 0.77 0.82 0.82 0.80 0.81 0.81 0.82 0.85 0.85 0.76 0.65 0.67 0.76 0.80 0.82 0.82 0.84 0.85 0.96
0.46 0.54 0.61 0.67 0.69 0.68 0.68 0.67 0.67 0.68 0.65 0.64 0.64 0.66 0.67 0.70 0.70 0.69 0.73 0.77 0.76 0.74 0.76 0.74 0.74 0.85 0.88 0.93 0.88 0.68 0.59 0.71 0.78 0.77 0.81 0.89 0.86 0.80
0.45 0.46 0.52 0.57 0.60 0.61 0.63 0.65 0.66 0.69 0.68 0.65 0.64 0.66 0.71 0.74 0.72 0.71 0.71 0.72 0.72 0.74 0.73 0.73 0.76 0.84 0.91 0.95 0.86 0.72 0.65 0.66 0.75 0.88 0.88 0.88 0.83 0.77
0.46 0.45 0.46 0.51 0.57 0.63 0.69 0.71 0.69 0.72 0.74 0.71 0.70 0.72 0.75 0.77 0.76 0.76 0.76 0.75 0.75 0.76 0.79 0.82 0.86 0.92 0.94 0.92 0.89 0.83 0.77 0.75 0.76 0.80 0.80 0.87 0.86 0.78

GEFSNE_prec_meanprecacc_282.txt.gz
Total_Precipitation_Accumulation
2.00 1.99 2.01 1.93 1.94 1.96 2.11 2.23 2.27 2.06 1.80 1.52 1.33 1.20 1.25 1.26 1.46 1.34 1.13 1.18 1.10 1.02 0.99 0.97 1.08 1.26 1.49 1.59 1.69 1.84 2.02 2.14 2.15 2.03 1.97 1.99 2.08 2.21
1.76 1.80 1.84 1.81 1.90 1.92 2.01 2.12 2.12 2.07 1.91 1.61 1.41 1.32 1.34 1.22 1.35 1.24 1.26 1.42 1.23 1.08 1.00 0.97 0.99 1.08 1.15 1.17 1.18 1.18 1.22 1.28 1.32 1.43 1.50 1.57 1.63 1.78
1.44 1.49 1.55 1.54 1.70 1.74 1.85 1.95 2.00 1.97 1.76 1.53 1.39 1.40 1.41 1.39 1.36 1.26 1.27 1.29 1.21 1.11 0.97 0.88 0.90 0.97 1.02 1.07 1.07 1.03 1.03 0.96 0.99 1.09 1.21 1.31 1.31 1.34
1.29 1.34 1.33 1.34 1.46 1.54 1.62 1.71 1.85 1.91 1.82 1.63 1.46 1.36 1.25 1.29 1.44 1.47 1.44 1.34 1.33 1.38 1.26 1.10 1.02 0.99 0.94 1.00 1.08 1.04 1.01 0.93 0.84 0.91 1.03 1.14 1.22 1.26
0.99 1.02 1.06 1.16 1.33 1.38 1.39 1.50 1.67 1.74 1.84 1.71 1.56 1.45 1.28 1.25 1.43 1.41 1.44 1.62 1.52 1.58 1.70 1.51 1.27 1.11 0.98 1.01 1.08 1.07 0.99 0.95 0.83 0.84 1.00 1.08 1.12 1.15
0.88 0.86 0.85 0.91 1.05 1.20 1.28 1.45 1.62 1.77 1.84 1.76 1.68 1.62 1.50 1.39 1.48 1.58 1.60 1.69 1.71 1.53 1.55 1.53 1.49 1.37 1.17 1.04 1.10 1.16 1.14 1.08 1.02 0.97 1.02 1.06 1.09 1.09
0.80 0.83 0.83 0.83 0.86 0.93 0.93 1.13 1.35 1.59 1.70 1.77 1.75 1.74 1.65 1.57 1.49 1.64 1.70 1.79 1.88 1.85 1.71 1.53 1.50 1.35 1.24 1.17 1.12 1.15 1.21 1.21 1.17 1.09 1.06 1.06 1.04 1.07
0.84 0.84 0.80 0.78 0.87 0.87 0.84 0.87 1.02 1.18 1.35 1.47 1.53 1.56 1.60 1.66 1.76 1.78 1.76 1.80 1.83 1.82 1.69 1.69 1.62 1.51 1.35 1.18 1.19 1.21 1.22 1.24 1.21 1.14 1.06 1.01 0.99 1.04
0.85 0.93 0.96 0.86 0.89 0.92 0.96 0.88 0.81 0.85 1.02 1.22 1.32 1.35 1.43 1.50 1.72 1.77 1.79 1.81 1.69 1.70 1.57 1.61 1.55 1.41 1.33 1.29 1.31 1.23 1.24 1.20 1.21 1.17 1.14 1.09 1.03 1.07
0.78 0.87 1.09 1.11 1.00 1.00 1.05 1.09 0.97 0.81 0.82 0.88 1.06 1.22 1.28 1.44 1.77 1.98 1.92 1.70 1.62 1.65 1.53 1.53 1.46 1.32 1.24 1.22 1.29 1.19 1.17 1.14 1.11 1.12 1.10 1.08 1.04 1.05
0.67 0.80 0.94 1.05 1.03 1.02 0.99 1.05 1.06 0.93 0.89 0.92 0.90 1.00 1.16 1.34 1.60 1.89 1.99 1.90 1.68 1.60 1.47 1.37 1.36 1.33 1.34 1.29 1.25 1.25 1.15 1.14 1.13 1.13 1.16 1.16 1.13 1.18
0.53 0.72 0.92 0.89 0.88 0.94 0.98 1.07 1.16 1.00 0.91 0.99 0.95 0.98 1.02 1.24 1.59 1.79 1.93 1.91 1.75 1.67 1.53 1.42 1.39 1.40 1.57 1.50 1.32 1.27 1.20 1.21 1.22 1.19 1.19 1.24 1.31 1.28
0.51 0.63 0.68 0.69 0.71 0.80 0.89 0.96 1.10 1.00 1.01 1.15 1.17 1.11 1.17 1.21 1.33 1.49 1.72 1.88 1.79 1.60 1.48 1.59 1.63 1.53 1.50 1.48 1.43 1.34 1.25 1.17 1.16 1.17 1.18 1.20 1.27 1.26
0.55 0.59 0.58 0.58 0.63 0.69 0.71 0.77 0.93 1.04 1.11 1.26 1.31 1.25 1.18 1.20 1.24 1.29 1.42 1.55 1.57 1.50 1.40 1.35 1.42 1.38 1.30 1.17 1.15 1.21 1.23 1.20 1.15 1.15 1.16 1.28 1.27 1.30
0.54 0.60 0.62 0.64 0.66 0.64 0.66 0.72 0.86 1.03 1.21 1.25 1.16 1.10 1.13 1.16 1.17 1.30 1.38 1.44 1.46 1.44 1.31 1.15 1.14 1.18 1.15 1.06 0.96 0.97 1.08 1.14 1.09 1.06 1.07 1.11 1.13 1.18
0.57 0.62 0.65 0.67 0.65 0.61 0.68 0.79 0.92 1.12 1.20 1.14 1.09 0.97 0.99 1.14 1.19 1.19 1.24 1.25 1.30 1.34 1.22 1.12 1.08 1.08 1.08 1.02 0.96 0.90 0.89 0.96 1.01 1.04 1.04 1.01 1.00 1.03
0.59 0.64 0.68 0.75 0.76 0.79 0.88 0.96 0.96 1.00 1.06 0.99 1.03 0.97 0.93 1.01 1.07 1.06 1.07 1.03 1.02 1.01 1.03 1.01 1.00 1.00 0.98 1.00 1.02 0.94 0.91 0.87 0.87 0.98 1.06 1.04 0.97 0.97
0.65 0.69 0.77 0.85 0.89 0.93 0.98 0.97 0.95 0.95 0.98 0.97 0.99 0.98 0.91 0.91 0.94 0.97 1.01 1.04 1.05 0.98 0.90 0.87 0.86 0.92 0.95 1.00 0.99 0.92 0.93 0.93 0.93 0.97 0.98 0.95 0.86 0.84
0.62 0.72 0.92 0.95 0.90 0.92 0.97 0.95 0.85 0.78 0.80 0.83 0.83 0.83 0.81 0.82 0.87 0.90 0.92 0.99 1.02 0.95 0.92 0.93 0.93 0.95 0.94 0.83 0.74 0.74 0.86 0.90 0.91 0.93 0.94 0.91 0.84 0.79
0.50 0.61 0.78 0.82 0.83 0.87 0.85 0.81 0.75 0.69 0.69 0.68 0.67 0.67 0.70 0.75 0.78 0.83 0.83 0.82 0.89 0.90 0.89 0.90 0.90 0.90 0.93 0.91 0.81 0.69 0.71 0.82 0.86 0.87 0.86 0.87 0.88 0.98
0.48 0.56 0.65 0.71 0.72 0.72 0.72 0.71 0.70 0.70 0.68 0.66 0.66 0.68 0.69 0.72 0.72 0.71 0.75 0.80 0.80 0.79 0.82 0.81 0.81 0.93 0.95 1.01 0.96 0.76 0.66 0.76 0.84 0.83 0.87 0.95 0.92 0.85
0.46 0.48 0.55 0.60 0.63 0.64 0.66 0.68 0.69 0.72 0.70 0.68 0.66 0.68 0.73 0.75 0.74 0.74 0.74 0.75 0.76 0.77 0.77 0.77 0.82 0.92 0.98 1.02 0.93 0.78 0.71 0.72 0.81 0.94 0.95 0.96 0.91 0.84
0.49 0.47 0.49 0.54 0.60 0.66 0.71 0.73 0.71 0.73 0.75 0.73 0.72 0.74 0.76 0.78 0.77 0.77 0.78 0.78 0.77 0.79 0.82 0.85 0.91 1.00 1.03 0.99 0.96 0.89 0.83 0.80 0.81 0.86 0.86 0.94 0.94 0.87

GEFSNE_prec_meanprecacc_288.txt.gz
Total_Precipitation_Accumulation
2.00 1.99 2.02 1.94 1.96 1.99 2.13 2.26 2.29 2.07 1.81 1.54 1.36 1.23 1.28 1.28 1.48 1.36 1.15 1.20 1.12 1.05 1.02 1.02 1.13 1.29 1.51 1.62 1.73 1.88 2.06 2.18 2.20 2.07 2.00 2.01 2.10 2.23
1.77 1.81 1.85 1.82 1.91 1.94 2.03 2.14 2.14 2.09 1.92 1.63 1.43 1.35 1.37 1.26 1.40 1.27 1.28 1.45 1.28 1.13 1.05 1.02 1.04 1.11 1.17 1.20 1.21 1.21 1.25 1.32 1.38 1.50 1.56 1.61 1.67 1.81
1.44 1.49 1.55 1.55 1.70 1.76 1.86 1.97 2.01 1.99 1.78 1.55 1.41 1.41 1.44 1.44 1.41 1.31 1.31 1.32 1.25 1.17 1.03 0.95 0.97 1.02 1.05 1.10 1.10 1.06 1.05 0.99 1.03 1.15 1.27 1.37 1.37 1.41
1.30 1.34 1.34 1.35 1.47 1.55 1.64 1.72 1.86 1.92 1.83 1.64 1.48 1.38 1.28 1.33 1.49 1.52 1.48 1.38 1.36 1.42 1.31 1.15 1.08 1.04 0.98 1.03 1.10 1.06 1.02 0.95 0.87 0.95 1.08 1.19 1.27 1.31
1.00 1.03 1.07 1.18 1.34 1.39 1.41 1.51 1.68 1.76 1.85 1.72 1.57 1.46 1.30 1.28 1.47 1.45 1.49 1.66 1.56 1.63 1.74 1.56 1.32 1.16 1.03 1.05 1.11 1.09 1.01 0.97 0.85 0.86 1.04 1.14 1.17 1.19
0.89 0.87 0.87 0.92 1.06 1.21 1.29 1.46 1.64 1.78 1.86 1.78 1.70 1.63 1.51 1.40 1.51 1.62 1.65 1.74 1.75 1.57 1.59 1.58 1.55 1.44 1.23 1.10 1.14 1.19 1.17 1.10 1.05 0.99 1.05 1.10 1.15 1.14
0.81 0.84 0.85 0.85 0.88 0.95 0.95 1.15 1.37 1.61 1.72 1.79 1.77 1.76 1.66 1.58 1.50 1.67 1.75 1.84 1.92 1.89 1.75 1.58 1.57 1.42 1.30 1.23 1.19 1.22 1.27 1.26 1.20 1.12 1.09 1.09 1.08 1.13
0.86 0.85 0.81 0.80 0.89 0.89 0.86 0.89 1.04 1.21 1.38 1.49 1.55 1.58 1.61 1.68 1.78 1.80 1.80 1.84 1.85 1.84 1.72 1.73 1.68 1.59 1.41 1.23 1.25 1.26 1.28 1.30 1.26 1.18 1.11 1.04 1.03 1.08
0.86 0.94 0.97 0.87 0.90 0.93 0.97 0.90 0.84 0.87 1.04 1.24 1.35 1.38 1.47 1.55 1.76 1.79 1.80 1.83 1.71 1.72 1.59 1.64 1.59 1.47 1.39 1.35 1.37 1.28 1.28 1.25 1.27 1.22 1.19 1.13 1.07 1.11
0.79 0.88 1.10 1.12 1.01 1.01 1.06 1.10 0.98 0.82 0.83 0.90 1.08 1.25 1.32 1.50 1.83 2.01 1.95 1.72 1.64 1.66 1.55 1.55 1.49 1.37 1.30 1.27 1.35 1.24 1.22 1.19 1.16 1.17 1.15 1.13 1.10 1.11
0.69 0.82 0.95 1.06 1.04 1.04 1.01 1.06 1.07 0.94 0.90 0.94 0.92 1.02 1.20 1.39 1.67 1.94 2.03 1.94 1.72 1.63 1.49 1.40 1.39 1.36 1.38 1.33 1.30 1.31 1.20 1.18 1.18 1.18 1.21 1.20 1.17 1.23
0.56 0.74 0.93 0.90 0.89 0.96 0.99 1.08 1.17 1.01 0.93 1.01 0.98 1.01 1.06 1.30 1.67 1.86 1.98 1.97 1.81 1.71 1.56 1.45 1.43 1.44 1.60 1.53 1.34 1.30 1.24 1.25 1.25 1.22 1.22 1.28 1.35 1.32
0.56 0.66 0.70 0.71 0.73 0.82 0.90 0.97 1.11 1.01 1.02 1.17 1.20 1.15 1.21 1.25 1.39 1.57 1.79 1.93 1.83 1.63 1.51 1.62 1.67 1.58 1.54 1.50 1.45 1.37 1.28 1.20 1.18 1.20 1.21 1.23 1.30 1.29
0.59 0.62 0.60 0.60 0.65 0.71 0.72 0.78 0.95 1.05 1.12 1.27 1.32 1.28 1.22 1.24 1.28 1.33 1.46 1.59 1.60 1.52 1.42 1.38 1.45 1.43 1.36 1.21 1.17 1.23 1.25 1.21 1.17 1.17 1.19 1.31 1.29 1.32
0.56 0.63 0.65 0.66 0.67 0.66 0.67 0.73 0.87 1.04 1.23 1.27 1.19 1.13 1.16 1.21 1.21 1.32 1.41 1.47 1.49 1.46 1.32 1.18 1.18 1.24 1.22 1.12 0.99 0.99 1.10 1.15 1.11 1.07 1.08 1.13 1.15 1.20
0.59 0.63 0.67 0.68 0.67 0.63 0.70 0.80 0.93 1.13 1.22 1.16 1.12 1.01 1.03 1.18 1.24 1.25 1.28 1.29 1.33 1.36 1.24 1.14 1.12 1.13 1.15 1.08 1.00 0.92 0.91 0.98 1.03 1.06 1.06 1.04 1.02 1.06
0.60 0.66 0.70 0.77 0.79 0.83 0.92 0.99 0.98 1.02 1.08 1.01 1.06 1.00 0.96 1.05 1.11 1.11 1.13 1.09 1.05 1.03 1.05 1.03 1.04 1.03 1.02 1.05 1.07 0.98 0.94 0.90 0.89 1.01 1.09 1.07 1.00 1.00
0.66 0.71 0.79 0.88 0.93 0.99 1.03 1.01 0.97 0.97 1.00 1.00 1.02 1.01 0.94 0.93 0.97 1.00 1.06 1.10 1.10 1.01 0.92 0.89 0.88 0.95 0.99 1.04 1.03 0.95 0.97 0.96 0.96 1.00 1.02 1.01 0.91 0.89
0.64 0.74 0.95 0.99 0.95 0.96 1.00 0.99 0.88 0.81 0.82 0.85 0.85 0.86 0.84 0.85 0.90 0.92 0.96 1.04 1.07 1.01 0.97 0.97 0.98 1.00 1.00 0.88 0.78 0.77 0.91 0.95 0.95 0.96 0.97 0.95 0.87 0.83
0.51 0.63 0.80 0.85 0.88 0.91 0.88 0.84 0.78 0.73 0.73 0.72 0.70 0.70 0.73 0.78 0.81 0.84 0.85 0.86 0.93 0.95 0.94 0.95 0.96 0.97 1.01 0.99 0.89 0.74 0.75 0.88 0.92 0.93 0.90 0.91 0.92 1.02
0.48 0.57 0.66 0.72 0.74 0.75 0.75 0.74 0.72 0.73 0.71 0.70 0.70 0.71 0.72 0.74 0.74 0.73 0.77 0.83 0.84 0.83 0.87 0.86 0.87 0.98 1.01 1.08 1.05 0.82 0.71 0.82 0.91 0.90 0.95 1.03 1.00 0.92
0.46 0.48 0.55 0.61 0.64 0.66 0.68 0.69 0.70 0.74 0.72 0.70 0.68 0.71 0.75 0.78 0.77 0.76 0.76 0.77 0.78 0.80 0.81 0.81 0.86 0.97 1.05 1.11 1.02 0.86 0.78 0.78 0.88 1.02 1.02 1.04 0.99 0.93
0.49 0.48 0.50 0.55 0.61 0.67 0.72 0.74 0.73 0.75 0.77 0.75 0.74 0.76 0.79 0.81 0.80 0.80 0.80 0.80 0.80 0.81 0.85 0.89 0.95 1.05 1.08 1.06 1.03 0.96 0.90 0.86 0.87 0.92 0.92 1.00 1.00 0.94

GEFSNE_prec_meanprecacc_294.txt.gz
Total_Precipitation_Accumulation
2.02 2.02 2.04 1.95 1.96 1.99 2.15 2.28 2.31 2.08 1.83 1.55 1.39 1.24 1.29 1.30 1.50 1.39 1.21 1.27 1.18 1.10 1.06 1.06 1.17 1.35 1.58 1.69 1.82 1.95 2.12 2.24 2.28 2.15 2.05 2.04 2.12 2.25
1.78 1.82 1.86 1.83 1.92 1.94 2.04 2.16 2.16 2.11 1.96 1.66 1.46 1.36 1.39 1.28 1.42 1.31 1.33 1.50 1.32 1.16 1.07 1.04 1.07 1.15 1.22 1.25 1.26 1.26 1.31 1.36 1.44 1.57 1.62 1.65 1.69 1.83
1.44 1.50 1.56 1.55 1.71 1.76 1.88 1.98 2.02 2.01 1.81 1.57 1.43 1.44 1.46 1.45 1.43 1.33 1.33 1.35 1.29 1.19 1.05 0.97 0.99 1.04 1.09 1.14 1.13 1.09 1.09 1.03 1.07 1.20 1.33 1.42 1.41 1.44
1.30 1.35 1.34 1.35 1.47 1.56 1.65 1.73 1.88 1.93 1.84 1.66 1.49 1.40 1.29 1.35 1.51 1.53 1.51 1.41 1.39 1.44 1.33 1.18 1.11 1.06 1.02 1.07 1.14 1.10 1.06 0.99 0.91 0.99 1.12 1.24 1.32 1.37
1.01 1.04 1.08 1.18 1.35 1.40 1.41 1.52 1.69 1.77 1.86 1.73 1.59 1.47 1.31 1.28 1.49 1.48 1.52 1.69 1.59 1.65 1.76 1.58 1.35 1.19 1.07 1.08 1.15 1.13 1.05 1.01 0.89 0.90 1.07 1.18 1.24 1.28
0.90 0.88 0.88 0.93 1.07 1.22 1.30 1.47 1.65 1.80 1.87 1.79 1.71 1.64 1.53 1.41 1.52 1.65 1.71 1.78 1.79 1.60 1.61 1.61 1.58 1.46 1.26 1.13 1.18 1.23 1.20 1.14 1.10 1.03 1.08 1.13 1.19 1.22
0.82 0.85 0.86 0.86 0.89 0.96 0.96 1.16 1.38 1.62 1.74 1.80 1.78 1.77 1.68 1.59 1.51 1.68 1.78 1.90 1.98 1.93 1.79 1.61 1.59 1.44 1.33 1.26 1.23 1.26 1.30 1.29 1.25 1.17 1.13 1.14 1.13 1.19
0.87 0.86 0.83 0.81 0.91 0.90 0.87 0.90 1.05 1.22 1.39 1.51 1.57 1.60 1.63 1.70 1.80 1.82 1.82 1.87 1.91 1.90 1.77 1.77 1.71 1.61 1.44 1.26 1.28 1.29 1.31 1.33 1.30 1.22 1.15 1.09 1.08 1.14
0.88 0.96 0.99 0.88 0.92 0.95 1.00 0.93 0.86 0.89 1.06 1.26 1.36 1.39 1.49 1.57 1.80 1.83 1.84 1.87 1.74 1.76 1.63 1.69 1.62 1.50 1.42 1.38 1.40 1.32 1.31 1.28 1.30 1.26 1.23 1.17 1.12 1.17
0.80 0.89 1.12 1.14 1.03 1.03 1.09 1.13 1.00 0.84 0.85 0.92 1.10 1.26 1.34 1.52 1.86 2.07 2.01 1.78 1.68 1.70 1.59 1.59 1.52 1.40 1.33 1.30 1.37 1.28 1.26 1.22 1.19 1.21 1.20 1.19 1.15 1.16
0.70 0.82 0.96 1.08 1.06 1.07 1.02 1.08 1.09 0.96 0.92 0.95 0.93 1.04 1.22 1.41 1.71 1.99 2.09 2.01 1.79 1.69 1.54 1.44 1.42 1.39 1.42 1.37 1.32 1.34 1.24 1.22 1.21 1.21 1.25 1.25 1.23 1.29
0.57 0.75 0.95 0.92 0.92 0.99 1.01 1.09 1.19 1.02 0.94 1.03 1.00 1.03 1.08 1.33 1.71 1.90 2.03 2.03 1.88 1.78 1.61 1.49 1.46 1.47 1.64 1.58 1.38 1.32 1.27 1.29 1.29 1.25 1.25 1.32 1.40 1.39
0.56 0.66 0.72 0.74 0.75 0.84 0.93 0.98 1.13 1.03 1.05 1.20 1.22 1.17 1.23 1.28 1.42 1.60 1.84 1.98 1.89 1.71 1.57 1.66 1.70 1.62 1.57 1.55 1.50 1.40 1.31 1.24 1.22 1.22 1.23 1.26 1.34 1.34
0.60 0.63 0.61 0.63 0.67 0.73 0.74 0.80 0.97 1.08 1.15 1.30 1.35 1.30 1.24 1.27 1.31 1.36 1.50 1.66 1.67 1.59 1.48 1.43 1.50 1.47 1.39 1.24 1.21 1.27 1.29 1.26 1.20 1.20 1.21 1.34 1.31 1.35
0.57 0.64 0.66 0.68 0.70 0.68 0.69 0.75 0.89 1.07 1.25 1.29 1.22 1.15 1.18 1.23 1.24 1.36 1.44 1.51 1.56 1.53 1.38 1.21 1.21 1.27 1.25 1.15 1.03 1.04 1.15 1.20 1.15 1.10 1.11 1.16 1.18 1.22
0.60 0.65 0.68 0.70 0.68 0.65 0.72 0.83 0.95 1.15 1.24 1.18 1.14 1.03 1.06 1.21 1.27 1.28 1.32 1.32 1.37 1.41 1.28 1.17 1.14 1.15 1.18 1.11 1.04 0.98 0.96 1.02 1.07 1.10 1.10 1.08 1.07 1.09
0.61 0.67 0.71 0.78 0.80 0.84 0.93 1.01 1.00 1.03 1.10 1.02 1.07 1.02 0.99 1.09 1.15 1.16 1.19 1.14 1.10 1.08 1.10 1.06 1.05 1.04 1.04 1.08 1.10 1.03 1.00 0.94 0.93 1.04 1.13 1.11 1.04 1.04
0.67 0.72 0.81 0.89 0.94 1.00 1.05 1.03 1.00 0.99 1.02 1.02 1.04 1.02 0.96 0.97 1.01 1.04 1.10 1.15 1.15 1.07 0.98 0.94 0.91 0.96 1.01 1.07 1.06 0.99 1.01 1.02 1.01 1.04 1.06 1.04 0.95 0.92
0.65 0.75 0.96 1.00 0.96 0.98 1.02 1.02 0.92 0.85 0.86 0.88 0.88 0.88 0.87 0.88 0.92 0.95 1.00 1.08 1.11 1.05 1.02 1.01 1.01 1.03 1.02 0.91 0.81 0.80 0.94 1.00 1.00 1.01 1.01 0.98 0.90 0.85
0.52 0.64 0.81 0.86 0.89 0.93 0.90 0.86 0.80 0.76 0.77 0.76 0.74 0.74 0.76 0.81 0.85 0.88 0.89 0.90 0.96 0.98 0.98 0.99 1.00 1.00 1.04 1.02 0.92 0.77 0.79 0.92 0.97 0.97 0.93 0.94 0.95 1.06
0.49 0.58 0.67 0.74 0.76 0.77 0.77 0.75 0.74 0.75 0.74 0.73 0.73 0.75 0.77 0.79 0.79 0.78 0.81 0.86 0.87 0.87 0.90 0.89 0.90 1.02 1.05 1.11 1.07 0.85 0.74 0.86 0.96 0.95 0.99 1.06 1.03 0.95
0.48 0.50 0.56 0.62 0.66 0.69 0.70 0.71 0.72 0.75 0.74 0.72 0.71 0.73 0.77 0.81 0.80 0.80 0.80 0.81 0.81 0.83 0.84 0.84 0.89 1.00 1.08 1.14 1.05 0.89 0.82 0.82 0.92 1.07 1.07 1.09 1.04 0.97
0.51 0.50 0.51 0.56 0.63 0.69 0.74 0.75 0.74 0.77 0.79 0.76 0.76 0.77 0.80 0.82 0.82 0.82 0.82 0.82 0.82 0.84 0.87 0.91 0.97 1.07 1.10 1.08 1.06 0.99 0.92 0.90 0.91 0.96 0.96 1.04 1.04 0.98